Manning, SC

4:20 AM EST on December 12, 2017 (GMT -0500)
Santee Cooper Regional

Weather History for KMNI - May, 2013

Change the Weather History Date:

Friday, May 24, 2013

  Actual Average (KCKI) Record (KCKI)
Temperature  
Mean Temperature 68 °F -  
Max Temperature 82 °F 84 °F 93 °F (2011)
Min Temperature 53 °F 58 °F 48 °F (2016)
Cooling Degree Days 4    
Growing Degree Days 18 (Base 50)    
Moisture  
Dew Point 61 °F    
Average Humidity 73    
Maximum Humidity 100    
Minimum Humidity 34    
Precipitation  
Precipitation 0.00 in - - ()
Sea Level Pressure  
Sea Level Pressure 29.99 in    
Wind  
Wind Speed 5 mph (NW)    
Max Wind Speed 16 mph    
Max Gust Speed 25 mph    
Visibility 9 miles    
Events      
Averages and records for this station are not official NWS values.
T = Trace of Precipitation, MM = Missing Value Source: NWS Daily Summary

Daily Weather History Graph

Daily Weather History Graph

Search for Another Location

Airport or City:

Trip Planner

Search our weather history database for the weather conditions in past years. The results will help you decide how hot, cold, wet, or windy it might be!

Date:

Astronomy

May. 24, 2013 Rise Set
Actual Time 6:14 AM EDT 8:21 PM EDT
Civil Twilight 5:46 AM EDT 8:49 PM EDT
Nautical Twilight 5:12 AM EDT 9:23 PM EDT
Astronomical Twilight 4:35 AM EDT 10:00 PM EDT
Moon 8:02 PM EDT (5/24) 5:42 AM EDT (5/24)
Length of Visible Light 15h 02m
Length of Day
14h 06m
Full, 100% of the Moon is Illuminated
May 24
Full
May 25
Full
May 31
Last Quarter
Jun 8
New
Jun 16
First Quarter

Hourly Weather History & Observations

Time (EDT) Temp. Heat Index Dew Point Humidity Pressure Visibility Wind Dir Wind Speed Gust Speed Precip Events Conditions
12:15 AM 68.0 °F - 66.2 °F 94% 29.88 in 5.0 mi Calm Calm - N/A   Clear
12:35 AM 69.8 °F - 66.2 °F 88% 29.88 in 7.0 mi SW 3.5 mph - N/A   Clear
12:55 AM 71.6 °F - 68.0 °F 88% 29.88 in 10.0 mi WSW 4.6 mph - N/A   Clear
1:15 AM 71.6 °F - 68.0 °F 88% 29.87 in 10.0 mi WSW 3.5 mph - N/A   Clear
1:35 AM 71.6 °F - 68.0 °F 88% 29.87 in 10.0 mi WSW 3.5 mph - N/A   Clear
1:55 AM 69.8 °F - 66.2 °F 88% 29.86 in 10.0 mi WSW 3.5 mph - N/A   Clear
2:15 AM 69.8 °F - 64.4 °F 83% 29.86 in 10.0 mi WSW 3.5 mph - N/A   Clear
2:35 AM 69.8 °F - 60.8 °F 73% 29.86 in 10.0 mi West 5.8 mph - N/A   Clear
2:55 AM 69.8 °F - 60.8 °F 73% 29.86 in 10.0 mi West 4.6 mph - N/A   Clear
3:15 AM 69.8 °F - 55.4 °F 60% 29.86 in 10.0 mi West 4.6 mph - N/A   Clear
3:35 AM 69.8 °F - 51.8 °F 53% 29.86 in 10.0 mi WNW 4.6 mph - N/A   Clear
3:55 AM 69.8 °F - 44.6 °F 40% 29.87 in 10.0 mi WNW 6.9 mph - N/A   Clear
4:15 AM 68.0 °F - 64.4 °F 88% 29.87 in 10.0 mi WNW 4.6 mph - N/A   Clear
4:35 AM 68.0 °F - 64.4 °F 88% 29.87 in 7.0 mi WNW 4.6 mph - N/A   Clear
4:55 AM 68.0 °F - 62.6 °F 83% 29.88 in 7.0 mi WNW 4.6 mph - N/A   Clear
5:15 AM 68.0 °F - 64.4 °F 88% 29.88 in 10.0 mi WNW 3.5 mph - N/A   Clear
5:35 AM 68.0 °F - 62.6 °F 83% 29.90 in 10.0 mi WNW 3.5 mph - N/A   Clear
5:55 AM 66.2 °F - 62.6 °F 88% 29.90 in 10.0 mi NW 3.5 mph - N/A   Clear
6:15 AM 66.2 °F - 66.2 °F 100% 29.91 in 10.0 mi Calm Calm - N/A   Clear
6:35 AM 66.2 °F - 66.2 °F 100% 29.92 in 7.0 mi WNW 3.5 mph - N/A   Clear
6:55 AM 66.2 °F - 64.4 °F 94% 29.92 in 7.0 mi WNW 4.6 mph - N/A   Scattered Clouds
7:15 AM 68.0 °F - 64.4 °F 88% 29.92 in 7.0 mi WNW 3.5 mph - N/A   Scattered Clouds
7:35 AM 68.0 °F - 64.4 °F 88% 29.92 in 10.0 mi NW 4.6 mph - N/A   Clear
7:55 AM 69.8 °F - 64.4 °F 83% 29.93 in 10.0 mi NW 4.6 mph - N/A   Clear
8:15 AM 69.8 °F - 64.4 °F 83% 29.93 in 10.0 mi NNW 6.9 mph - N/A   Clear
8:35 AM 71.6 °F - 64.4 °F 78% 29.94 in 10.0 mi NW 6.9 mph - N/A   Clear
8:55 AM 73.4 °F - 64.4 °F 73% 29.95 in 7.0 mi NW 5.8 mph - N/A   Clear
9:15 AM 73.4 °F - 64.4 °F 73% 29.95 in 10.0 mi NNW 5.8 mph - N/A   Clear
9:35 AM 75.2 °F - 64.4 °F 69% 29.96 in 7.0 mi NNW 5.8 mph - N/A   Clear
9:55 AM 75.2 °F - 66.2 °F 73% 29.96 in 10.0 mi NNW 6.9 mph - N/A   Clear
10:15 AM 77.0 °F - 68.0 °F 74% 29.97 in 7.0 mi NNW 8.1 mph - N/A   Clear
10:35 AM 77.0 °F - 68.0 °F 74% 29.97 in 7.0 mi NW 8.1 mph - N/A   Clear
10:55 AM 78.8 °F - 66.2 °F 65% 29.98 in 10.0 mi NNW 9.2 mph - N/A   Clear
11:15 AM 78.8 °F - 66.2 °F 65% 29.99 in 10.0 mi NW 10.4 mph - N/A   Scattered Clouds
11:35 AM 78.8 °F - 66.2 °F 65% 29.99 in 10.0 mi NNW 11.5 mph 17.3 mph N/A   Scattered Clouds
11:55 AM 80.6 °F 82.3 °F 64.4 °F 58% 29.99 in 10.0 mi NNW 9.2 mph - N/A   Mostly Cloudy
12:15 PM 80.6 °F 82.3 °F 64.4 °F 58% 30.00 in 10.0 mi NNW 9.2 mph 17.3 mph N/A   Mostly Cloudy
12:35 PM 78.8 °F - 64.4 °F 61% 30.00 in 10.0 mi NNW 6.9 mph - N/A   Mostly Cloudy
12:55 PM 80.6 °F 82.3 °F 64.4 °F 58% 30.00 in 10.0 mi NNW 9.2 mph - N/A   Mostly Cloudy
1:15 PM 82.4 °F 83.9 °F 64.4 °F 54% 30.00 in 10.0 mi NNW 10.4 mph 17.3 mph N/A   Scattered Clouds
1:35 PM 82.4 °F - - N/A% 30.00 in 10.0 mi North 13.8 mph 21.9 mph N/A   Scattered Clouds
1:55 PM 82.4 °F - - N/A% 30.00 in 10.0 mi NNW 11.5 mph 19.6 mph N/A   Scattered Clouds
2:15 PM 82.4 °F 82.5 °F 59.0 °F 45% 30.00 in 10.0 mi NW 13.8 mph 24.2 mph N/A   Scattered Clouds
2:35 PM 82.4 °F 82.9 °F 60.8 °F 48% 30.00 in 10.0 mi NNW 16.1 mph 20.7 mph N/A   Scattered Clouds
2:55 PM 82.4 °F 82.5 °F 59.0 °F 45% 30.01 in 10.0 mi North 16.1 mph 23.0 mph N/A   Scattered Clouds
3:15 PM 82.4 °F 82.9 °F 60.8 °F 48% 30.01 in 10.0 mi NW 11.5 mph 21.9 mph N/A   Scattered Clouds
3:35 PM 82.4 °F 82.9 °F 60.8 °F 48% 30.01 in 5.0 mi NNW 12.7 mph 20.7 mph N/A   Scattered Clouds
3:55 PM 82.4 °F 81.4 °F 53.6 °F 37% 30.01 in 10.0 mi NNW 13.8 mph 25.3 mph N/A   Scattered Clouds
4:15 PM 82.4 °F 81.7 °F 55.4 °F 39% 30.01 in 10.0 mi NNW 9.2 mph 18.4 mph N/A   Scattered Clouds
4:35 PM 82.4 °F - 51.8 °F 35% 30.02 in 10.0 mi NNW 11.5 mph 19.6 mph N/A   Scattered Clouds
4:55 PM 82.4 °F - - N/A% 30.03 in 10.0 mi NNW 13.8 mph 24.2 mph N/A   Clear
5:15 PM 80.6 °F - - N/A% 30.04 in 10.0 mi NNW 15.0 mph 21.9 mph N/A   Clear
5:35 PM 80.6 °F - - N/A% 30.04 in 10.0 mi NW 13.8 mph 19.6 mph N/A   Clear
5:55 PM 80.6 °F - - N/A% 30.05 in 10.0 mi NNW 9.2 mph 18.4 mph N/A   Clear
6:15 PM 78.8 °F - - N/A% 30.05 in 5.0 mi NW 12.7 mph 18.4 mph N/A   Clear
6:35 PM 78.8 °F - - N/A% 30.06 in 7.0 mi NW 12.7 mph 17.3 mph N/A   Clear
6:55 PM 78.8 °F - - N/A% 30.06 in 10.0 mi NNW 9.2 mph 17.3 mph N/A   Clear
7:15 PM 77.0 °F - - N/A% 30.07 in 10.0 mi NNW 8.1 mph - N/A   Clear
7:35 PM 77.0 °F - - N/A% 30.08 in 10.0 mi NNW 9.2 mph - N/A   Clear
7:55 PM 73.4 °F - - N/A% 30.10 in 10.0 mi NNW 5.8 mph - N/A   Clear
8:15 PM 71.6 °F - - N/A% 30.11 in 10.0 mi NNW 3.5 mph - N/A   Clear
8:35 PM 68.0 °F - 51.8 °F 56% 30.11 in 10.0 mi Calm Calm - N/A   Clear
8:55 PM 64.4 °F - 50.0 °F 59% 30.12 in 10.0 mi Calm Calm - N/A   Clear
9:15 PM 62.6 °F - 33.8 °F 34% 30.13 in 10.0 mi Calm Calm - N/A   Clear
9:35 PM 60.8 °F - 53.6 °F 77% 30.14 in 10.0 mi Calm Calm - N/A   Clear
9:55 PM 60.8 °F - 55.4 °F 82% 30.14 in 10.0 mi Calm Calm - N/A   Clear
10:15 PM 59.0 °F - 55.4 °F 88% 30.15 in 10.0 mi Calm Calm - N/A   Clear
10:35 PM 57.2 °F - 55.4 °F 94% 30.16 in 10.0 mi Calm Calm - N/A   Clear
10:55 PM 55.4 °F - 51.8 °F 88% 30.17 in 10.0 mi Calm Calm - N/A   Clear
11:15 PM 55.4 °F - 53.6 °F 94% 30.18 in 7.0 mi Calm Calm - N/A   Clear
11:35 PM 55.4 °F - 55.4 °F 100% 30.19 in 10.0 mi Calm Calm - N/A   Clear
11:55 PM 53.6 °F - 53.6 °F 100% 30.19 in 10.0 mi Calm Calm - N/A   Clear